When you browse on this site, cookies collect data to enhance your experience and personalize the content and advertising you see.
Visit our Privacy Policy to learn more. By continuing to use the site, you agree to this use of cookies and data.
  • In Romania
  • List of Countries
  • For 7 days
  • Water Temperature
  • Satellite Maps
  • Weather Map
  • Weather Widgets
  • user-avatar
    Login

    Hourly Weather Lahaur

    Today, 25 May, Saturday

    Time Temperature Precipitation Wind Pressure Humidity
    00:00 +34°C° 0.5 mm 3 mps 736 mmHg 40%
    01:00 +33°C° 0.5 mm 3 mps 736 mmHg 44%
    02:00 +31°C° 0.5 mm 3 mps 736 mmHg 47%
    03:00 +30°C° 0 mm 2 mps 736 mmHg 47%
    04:00 +30°C° 0 mm 2 mps 736 mmHg 48%
    05:00 +29°C° 0 mm 1 mps 735 mmHg 48%
    06:00 +30°C° 0 mm 1 mps 735 mmHg 44%
    07:00 +31°C° 0 mm 1 mps 736 mmHg 41%
    08:00 +32°C° 0 mm 2 mps 736 mmHg 38%
    09:00 +34°C° 0 mm 2 mps 736 mmHg 34%
    10:00 +36°C° 0 mm 2 mps 736 mmHg 30%
    11:00 +37°C° 0 mm 3 mps 736 mmHg 26%
    12:00 +38°C° 0 mm 3 mps 736 mmHg 23%
    13:00 +39°C° 0 mm 3 mps 735 mmHg 21%
    14:00 +41°C° 0 mm 4 mps 735 mmHg 18%
    15:00 +41°C° 0 mm 4 mps 735 mmHg 17%
    16:00 +41°C° 0 mm 4 mps 734 mmHg 17%
    17:00 +41°C° 0 mm 4 mps 734 mmHg 16%
    18:00 +39°C° 0 mm 3 mps 734 mmHg 17%
    19:00 +38°C° 0 mm 3 mps 734 mmHg 18%
    20:00 +37°C° 0 mm 2 mps 734 mmHg 20%
    21:00 +36°C° 0 mm 2 mps 734 mmHg 21%
    22:00 +35°C° 0 mm 1 mps 734 mmHg 23%
    23:00 +34°C° 0 mm 1 mps 734 mmHg 24%

    Tomorrow, 26 May, Sunday

    Time Temperature Precipitation Wind Pressure Humidity
    00:00 +33°C° 0 mm 1 mps 733 mmHg 25%
    01:00 +33°C° 0 mm 1 mps 733 mmHg 26%
    02:00 +32°C° 0 mm 1 mps 733 mmHg 28%
    03:00 +32°C° 0 mm 1 mps 733 mmHg 29%
    04:00 +31°C° 0 mm 1 mps 733 mmHg 30%
    05:00 +31°C° 0 mm 2 mps 733 mmHg 31%
    06:00 +32°C° 0 mm 2 mps 733 mmHg 29%
    07:00 +35°C° 0 mm 2 mps 734 mmHg 26%
    08:00 +36°C° 0 mm 2 mps 734 mmHg 24%
    09:00 +38°C° 0 mm 2 mps 734 mmHg 21%
    10:00 +39°C° 0 mm 2 mps 734 mmHg 18%
    11:00 +41°C° 0 mm 1 mps 734 mmHg 14%
    12:00 +42°C° 0 mm 2 mps 734 mmHg 14%
    13:00 +42°C° 0 mm 2 mps 734 mmHg 13%
    14:00 +43°C° 0 mm 2 mps 734 mmHg 12%
    15:00 +43°C° 0 mm 2 mps 733 mmHg 12%
    16:00 +43°C° 0 mm 2 mps 733 mmHg 12%
    17:00 +43°C° 0 mm 2 mps 733 mmHg 11%
    18:00 +42°C° 0 mm 2 mps 733 mmHg 12%
    19:00 +41°C° 0 mm 2 mps 733 mmHg 13%
    20:00 +40°C° 0 mm 2 mps 733 mmHg 14%
    21:00 +39°C° 0 mm 3 mps 733 mmHg 15%
    22:00 +38°C° 0 mm 3 mps 734 mmHg 16%
    23:00 +38°C° 0 mm 4 mps 734 mmHg 17%

    Day after tomorrow, 27 May, Monday

    Time Temperature Precipitation Wind Pressure Humidity
    00:00 +37°C° 0 mm 3 mps 734 mmHg 17%
    01:00 +36°C° 0 mm 3 mps 733 mmHg 18%
    02:00 +35°C° 0 mm 3 mps 733 mmHg 18%
    03:00 +34°C° 0 mm 2 mps 733 mmHg 19%
    04:00 +34°C° 0 mm 2 mps 733 mmHg 19%
    05:00 +32°C° 0 mm 2 mps 733 mmHg 20%
    06:00 +34°C° 0 mm 2 mps 734 mmHg 18%
    07:00 +36°C° 0 mm 2 mps 734 mmHg 16%
    08:00 +37°C° 0 mm 2 mps 734 mmHg 14%
    09:00 +39°C° 0 mm 2 mps 734 mmHg 12%
    10:00 +41°C° 0 mm 2 mps 735 mmHg 10%
    11:00 +43°C° 0 mm 2 mps 735 mmHg 8%
    12:00 +43°C° 0 mm 2 mps 734 mmHg 8%
    13:00 +45°C° 0 mm 2 mps 734 mmHg 8%
    14:00 +46°C° 0 mm 3 mps 734 mmHg 7%
    15:00 +46°C° 0 mm 3 mps 733 mmHg 7%
    16:00 +46°C° 0 mm 3 mps 733 mmHg 7%
    17:00 +45°C° 0 mm 3 mps 733 mmHg 7%
    18:00 +44°C° 0 mm 3 mps 733 mmHg 8%
    19:00 +42°C° 0 mm 2 mps 733 mmHg 9%
    20:00 +41°C° 0 mm 2 mps 733 mmHg 9%
    21:00 +40°C° 0 mm 2 mps 733 mmHg 10%
    22:00 +39°C° 0 mm 2 mps 734 mmHg 11%
    23:00 +38°C° 0 mm 3 mps 734 mmHg 12%

    28 May, Tuesday

    Time Temperature Precipitation Wind Pressure Humidity
    00:00 +37°C° 0 mm 2 mps 733 mmHg 12%
    01:00 +36°C° 0 mm 2 mps 733 mmHg 13%
    02:00 +35°C° 0 mm 2 mps 733 mmHg 13%
    03:00 +35°C° 0 mm 2 mps 733 mmHg 13%
    04:00 +34°C° 0 mm 2 mps 732 mmHg 13%
    05:00 +32°C° 0 mm 1 mps 732 mmHg 13%
    06:00 +35°C° 0 mm 2 mps 733 mmHg 11%
    07:00 +36°C° 0 mm 2 mps 733 mmHg 10%
    08:00 +38°C° 0 mm 2 mps 734 mmHg 8%
    09:00 +40°C° 0 mm 1 mps 734 mmHg 7%
    10:00 +42°C° 0 mm 1 mps 734 mmHg 7%
    11:00 +41°C° 0 mm 0 mps 734 mmHg 6%
    12:00 +45°C° 0 mm 1 mps 734 mmHg 6%
    13:00 +46°C° 0 mm 2 mps 733 mmHg 6%
    14:00 +47°C° 0 mm 3 mps 733 mmHg 6%
    15:00 +47°C° 0 mm 3 mps 732 mmHg 6%
    16:00 +47°C° 0 mm 3 mps 732 mmHg 6%
    17:00 +47°C° 0 mm 3 mps 732 mmHg 6%
    18:00 +45°C° 0 mm 3 mps 732 mmHg 7%
    19:00 +43°C° 0 mm 2 mps 732 mmHg 7%
    20:00 +42°C° 0 mm 2 mps 732 mmHg 8%
    21:00 +41°C° 0 mm 2 mps 732 mmHg 8%
    22:00 +40°C° 0 mm 2 mps 732 mmHg 9%
    23:00 +39°C° 0 mm 2 mps 732 mmHg 10%

    29 May, Wednesday

    Time Temperature Precipitation Wind Pressure Humidity
    00:00 +38°C° 0 mm 2 mps 732 mmHg 11%
    01:00 +37°C° 0 mm 2 mps 732 mmHg 12%
    02:00 +36°C° 0 mm 2 mps 732 mmHg 13%
    03:00 +36°C° 0 mm 2 mps 731 mmHg 13%
    04:00 +35°C° 0 mm 2 mps 731 mmHg 13%
    05:00 +34°C° 0 mm 2 mps 731 mmHg 12%
    06:00 +36°C° 0 mm 2 mps 732 mmHg 11%
    07:00 +37°C° 0 mm 2 mps 732 mmHg 10%
    08:00 +39°C° 0 mm 2 mps 733 mmHg 9%
    09:00 +41°C° 0 mm 1 mps 733 mmHg 8%
    10:00 +43°C° 0 mm 1 mps 733 mmHg 7%
    11:00 +43°C° 0 mm 0 mps 733 mmHg 6%
    12:00 +46°C° 0 mm 1 mps 732 mmHg 6%
    13:00 +48°C° 0 mm 2 mps 732 mmHg 6%
    14:00 +48°C° 0 mm 2 mps 731 mmHg 5%
    15:00 +48°C° 0 mm 2 mps 731 mmHg 5%
    16:00 +48°C° 0 mm 2 mps 730 mmHg 5%
    17:00 +48°C° 0 mm 3 mps 730 mmHg 5%
    18:00 +47°C° 0 mm 2 mps 730 mmHg 6%
    19:00 +45°C° 0 mm 2 mps 730 mmHg 6%
    20:00 +43°C° 0 mm 2 mps 731 mmHg 7%
    21:00 +42°C° 0 mm 2 mps 731 mmHg 8%
    22:00 +41°C° 0 mm 2 mps 731 mmHg 8%
    23:00 +40°C° 0 mm 2 mps 731 mmHg 9%

    30 May, Thursday

    Time Temperature Precipitation Wind Pressure Humidity
    00:00 +39°C° 0 mm 2 mps 730 mmHg 10%
    01:00 +38°C° 0 mm 2 mps 730 mmHg 11%
    02:00 +37°C° 0 mm 2 mps 730 mmHg 12%
    03:00 +36°C° 0 mm 1 mps 730 mmHg 12%
    04:00 +35°C° 0 mm 1 mps 730 mmHg 12%
    05:00 +34°C° 0 mm 1 mps 730 mmHg 12%
    06:00 +36°C° 0 mm 1 mps 730 mmHg 11%
    07:00 +39°C° 0 mm 1 mps 731 mmHg 10%
    08:00 +40°C° 0 mm 1 mps 731 mmHg 9%
    09:00 +42°C° 0 mm 1 mps 731 mmHg 8%
    10:00 +44°C° 0 mm 1 mps 731 mmHg 7%
    11:00 +46°C° 0 mm 1 mps 731 mmHg 6%
    12:00 +48°C° 0 mm 2 mps 731 mmHg 6%
    13:00 +49°C° 0 mm 2 mps 730 mmHg 5%
    14:00 +50°C° 0 mm 3 mps 730 mmHg 5%
    15:00 +50°C° 0 mm 3 mps 729 mmHg 5%
    16:00 +50°C° 0 mm 3 mps 729 mmHg 5%
    17:00 +50°C° 0 mm 3 mps 729 mmHg 5%
    18:00 +48°C° 0 mm 3 mps 729 mmHg 5%
    19:00 +46°C° 0 mm 2 mps 729 mmHg 6%
    20:00 +45°C° 0 mm 2 mps 730 mmHg 7%
    21:00 +43°C° 0 mm 2 mps 730 mmHg 7%
    22:00 +42°C° 0 mm 2 mps 730 mmHg 8%
    23:00 +41°C° 0 mm 2 mps 730 mmHg 8%
    Show more